Погода в Россонах

Беларусь     55°54′12″N   28°48′50″E
темп.,
°C
ветер,
м/с
пор.,
м/с
влажн.,
%
обл.,
%
осадки,
мм/ч
давл.,
гПа
погр.,
м
22 апреля, чт
чт2200:00+5ююз379123 0.1 1006139
03:00+5юз288876 0.1 1006161
06:00+4юз398897 0.0 1007219
09:00+8юз246955 0.0 1008395
12:00+12ююз4953100 0.0 10081568
15:00+12юз4767100 1.1 10071153
18:00+7зюз487392 0.8 1009784
21:00+5ю378596 0.8 1009180
23 апреля, пт
пт2300:00+4юз31080100 0.1 1008437
03:00+3юз31079100 0.1 1009563
06:00+1ююз3109220 0.0 1008530
09:00+3юз6975100 0.0 10091033
12:00+4ююз5968100 0.0 10101362
15:00+5зюз476786 0.5 10111308
18:00+6зюз466393 0.8 10111302
21:00+2зюз248496 1.1 101190
24 апреля, сб
сб2400:000з269463 0.0 1012165
03:00−1зюз279650 0.0 1011172
06:00−1юз3992100 0.0 1010488
09:00+1зюз4890100 0.2 1010753
12:00+3з6880100 1.0 10101109
15:00+4з5876100 1.8 10101170
18:00+4з51075100 0.8 10101306
21:00+1з5128691 0.9 1010794
25 апреля, вс
вс2500:00+1з51085100 0.0 1009931
03:00+1зюз4997100 0.5 1009403
06:00+1зюз41097100 0.4 1009548
09:00+1з4995100 1.1 1009754
12:00+3з577495 0.6 10101138
15:00+4з5878100 1.2 10101186
18:00+4з5877100 0.9 10101196
21:00+1зсз4887100 1.3 1011655
26 апреля, пн
пн2600:000з499797 0.3 1012609
03:00−1зсз489291 0.6 1012726
06:00−2зсз4991100 0.0 1013604
09:000з4783100 0.1 1013736
12:00+4зсз4759100 0.1 10131518
15:00+5з5763100 0.6 10121365
18:00+5з4665100 0.4 10121363
21:00+2зюз268199 0.4 1012132